Location: Gajan
(43.0218°N, 1.1244°E)
Time: 15:25:44
(UTC+00:00)

Cosmos 2237 Rocket - Pass Details

Date: 22 April 2021
Orbit: 836 x 849 km, 71.0° (Epoch: 12 May)

Event Time Altitude Azimuth Distance (km) Brightness Sun altitude
Rises 20:19:01 0° 334° (NNW) 3,400 6.5 -15.9°
Reaches altitude 10° 20:21:28 10° 334° (NNW) 2,460 5.6 -16.3°
Maximum altitude 20:27:06 82° 248° (WSW) 849 2.2 -17.1°
Enters shadow 20:30:41 23° 162° (SSE) 1,691 3.3 -17.7°
